This is the latest recevied weather packets stored in our database for station/object WA2TQI. If no packets are shown the sender has not sent any weather packets the latest 10 day(s).
| Time | Temp. | Humidity | Pressure | Rain* | Wind** | Luminosity | Snow |
|---|---|---|---|---|---|---|---|
| 1778085535 | 20° C | 87% | 1010 hPa | 0 mm | - | - | - |
| 1778085230 | 19.44° C | 87% | 1010.1 hPa | 0 mm | - | - | - |
| 1778084925 | 20° C | 83% | 1010.3 hPa | 0 mm | - | - | - |
| 1778084623 | 20° C | 82% | 1010.5 hPa | 0 mm | - | - | - |
| 1778084320 | 20° C | 84% | 1010.8 hPa | 0 mm | - | - | - |
| 1778084018 | 20° C | 82% | 1010.8 hPa | 0 mm | - | - | - |
| 1778083715 | 20° C | 81% | 1011 hPa | 0 mm | - | - | - |
| 1778083412 | 20° C | 82% | 1011.1 hPa | 0 mm | - | - | - |
| 1778083111 | 20° C | 80% | 1011 hPa | 0 mm | - | - | - |
| 1778082806 | 20° C | 81% | 1011.2 hPa | 0 mm | - | - | - |
| 1778081679 | 20° C | 78% | 1010.9 hPa | 0 mm | - | - | - |
| 1778081377 | 20.56° C | 79% | 1010.8 hPa | 0 mm | - | - | - |
| 1778081073 | 20.56° C | 76% | 1010.8 hPa | 0 mm | - | - | - |
| 1778080772 | 20.56° C | 75% | 1011 hPa | 0 mm | - | - | - |
| 1778080468 | 20.56° C | 75% | 1011 hPa | 0 mm | - | - | - |
| 1778080166 | 21.11° C | 74% | 1010.7 hPa | 0 mm | - | - | - |
| 1778079862 | 21.11° C | 73% | 1010.7 hPa | 0 mm | - | - | - |
| 1778079559 | 21.11° C | 72% | 1011 hPa | 0 mm | - | - | - |
| 1778079255 | 21.11° C | 73% | 1010.9 hPa | 0 mm | - | - | - |
| 1778078953 | 21.11° C | 74% | 1011.1 hPa | 0 mm | - | - | - |
| 1778078649 | 20.56° C | 74% | 1011 hPa | 0 mm | - | - | - |
| 1778078348 | 20.56° C | 74% | 1011.2 hPa | 0 mm | - | - | - |
| 1778078044 | 20.56° C | 74% | 1011.3 hPa | 0 mm | - | - | - |
| 1778077743 | 20.56° C | 74% | 1011.3 hPa | 0 mm | - | - | - |
| 1778077440 | 20.56° C | 73% | 1011.2 hPa | 0 mm | - | - | - |
* Rain latest hour (hover to see other rain measurements)
** Current wind speed in m/s (hover to see current wind gust speed)